Theta_e
270 270 270 271 271 271 272 273 273 272 271 269 271 272 270 268 267 266 266 268 269 272 274 273 275 278 277 278 280 279 279 282 283 282 282 282 282 286 288 290 292 294 296 296 297 299 302 303 304 304 305 306 306 306 306 307 310 311 311 311 312 313 313 314 316 317 316 316 317 317 317 317 318 318
270 270 270 271 271 272 272 271 272 272 271 271 271 271 271 271 268 268 267 267 271 271 274 275 274 276 277 278 278 279 279 282 282 281 281 281 281 286 287 288 289 292 293 293 294 296 299 301 302 302 304 305 305 305 305 306 308 309 310 312 311 311 311 311 314 315 316 316 316 316 316 316 317 317
269 268 269 270 270 271 270 271 271 272 272 270 271 271 270 270 270 269 269 267 270 273 271 273 276 276 276 277 277 278 278 280 281 280 280 280 284 286 286 287 288 290 292 292 293 293 295 298 300 301 302 303 303 304 305 305 305 306 307 308 310 311 310 310 310 311 312 314 316 316 315 315 316 315
267 267 267 268 269 270 270 270 271 271 271 272 271 271 271 271 271 270 269 267 267 272 271 273 274 275 275 276 276 276 277 280 282 279 280 280 284 282 282 285 287 289 290 291 292 293 294 296 298 300 301 302 302 302 303 303 304 304 305 306 307 309 311 311 310 310 310 312 315 317 317 317 316 316
267 267 266 266 267 268 268 269 269 270 271 270 270 270 270 270 271 270 269 267 268 271 273 273 274 275 276 275 276 276 277 278 279 281 279 280 280 281 281 282 286 288 289 290 291 293 294 294 294 296 298 300 302 302 302 302 302 304 303 304 305 306 309 311 310 309 309 311 315 317 318 318 318 316
266 266 265 266 266 267 267 267 268 270 270 270 270 270 270 270 270 271 270 269 269 268 273 273 275 276 277 275 278 277 277 277 278 278 279 280 280 281 281 282 282 287 288 290 291 293 294 295 294 294 296 297 299 301 301 301 302 301 301 301 301 304 306 309 310 309 308 310 313 316 317 318 318 318
265 265 265 265 266 266 266 267 267 268 269 270 270 270 270 270 270 271 271 270 269 269 270 273 273 274 276 276 277 278 278 278 279 278 279 279 280 281 281 282 283 286 289 290 291 292 293 293 294 294 295 296 298 300 302 301 300 301 301 301 301 301 303 305 306 310 309 309 311 315 317 317 318 318
265 264 264 265 265 266 266 266 267 268 269 269 269 270 270 271 271 271 271 271 269 269 268 271 271 273 274 275 277 277 278 277 277 278 278 279 279 280 281 281 282 285 288 289 290 291 292 292 293 294 295 296 298 298 298 298 298 298 299 298 298 299 301 302 304 306 308 309 309 312 315 317 317 317
267 267 266 266 266 265 265 265 266 267 267 268 269 269 270 271 271 272 272 271 272 270 270 271 273 273 274 274 275 276 275 275 276 277 277 277 278 279 280 281 282 286 288 288 289 290 291 292 292 293 294 295 297 297 298 298 297 297 296 297 296 298 299 300 302 303 303 304 306 309 311 313 313 312
266 266 267 268 268 267 265 265 266 266 267 268 268 267 268 270 271 271 272 272 272 272 271 272 271 273 272 273 273 274 275 274 274 275 276 277 278 278 279 280 282 283 284 284 285 288 290 291 292 293 294 295 295 296 297 297 296 295 295 295 296 297 297 299 300 301 302 303 303 303 306 308 309 308
265 266 266 267 268 268 268 268 267 266 265 266 265 267 267 268 268 268 269 270 270 270 270 271 272 273 275 275 274 276 276 275 275 274 275 275 277 278 278 279 281 282 283 286 288 288 287 288 288 290 292 294 295 295 295 295 295 294 295 295 296 297 297 298 298 299 300 301 302 302 303 303 307 309
265 266 266 266 266 267 267 267 268 268 267 266 265 267 267 267 267 267 268 268 268 268 269 270 270 271 271 273 275 276 277 276 277 277 277 275 276 277 278 279 279 280 281 282 283 286 288 288 289 291 292 292 293 293 293 293 292 292 294 295 296 296 296 297 297 298 299 300 300 301 302 302 303 305
265 266 266 266 266 267 268 270 270 270 270 267 266 267 267 267 267 267 267 267 268 268 268 269 271 271 272 274 274 275 275 275 275 278 278 277 278 278 278 279 280 280 280 281 282 283 284 284 284 284 285 286 289 289 291 290 290 292 293 294 295 295 296 296 296 297 298 299 300 300 301 301 302 302
265 266 266 267 269 269 270 270 271 273 273 273 271 269 268 268 267 267 267 268 268 269 269 270 271 271 272 274 275 276 277 278 279 278 279 277 279 279 278 279 280 280 280 280 281 282 284 283 283 283 283 284 285 285 286 287 288 290 292 293 294 295 295 295 296 296 297 299 300 300 300 301 302 302
265 265 266 266 268 269 269 270 272 273 273 274 274 275 275 274 271 269 269 269 270 270 270 271 272 273 273 275 276 277 277 279 279 279 279 279 279 278 277 276 279 282 281 280 280 281 282 282 282 283 283 284 284 284 285 288 289 290 292 292 293 294 294 295 295 296 297 298 299 300 300 300 301 301
266 265 266 266 267 267 268 268 269 270 273 274 274 275 275 276 277 276 273 271 271 272 271 272 273 274 274 275 277 277 277 277 278 279 279 279 278 278 278 278 277 278 281 280 279 280 282 281 281 282 283 283 283 284 287 289 290 291 291 292 292 293 294 295 296 296 297 297 298 299 299 299 300 300
268 267 267 267 267 268 270 270 269 269 269 272 274 275 276 276 277 277 278 278 276 275 274 274 274 275 276 276 277 278 278 280 278 279 278 278 279 279 278 279 279 279 280 281 280 279 281 281 281 281 283 283 283 284 288 289 290 290 291 291 292 292 293 294 296 296 297 297 298 298 298 299 299 299
269 269 268 267 268 269 269 270 270 271 271 271 272 272 273 274 275 277 278 279 279 278 276 276 275 277 278 277 278 279 281 279 278 278 278 279 278 278 279 280 281 279 283 281 281 280 281 281 280 281 283 283 283 283 286 288 289 290 290 291 291 292 293 294 295 296 297 297 297 298 298 298 298 298
270 270 270 270 270 271 271 272 272 272 272 272 272 272 273 274 275 276 277 277 278 278 278 278 278 278 279 279 279 280 281 281 281 280 280 280 280 281 281 280 279 280 281 282 282 277 281 283 282 282 283 283 282 283 286 288 289 290 290 290 291 292 292 293 295 296 296 297 297 297 297 297 298 298
272 272 271 271 271 271 272 274 276 275 274 273 273 273 273 274 275 276 278 280 281 280 279 279 279 279 280 281 280 280 281 281 281 281 281 281 280 279 278 277 279 278 279 282 281 279 280 282 282 281 283 282 282 284 284 287 289 289 290 290 291 291 292 293 294 295 296 297 297 297 297 297 296 296
273 273 273 273 273 273 272 274 276 277 276 274 273 273 273 274 275 276 278 281 282 283 283 283 283 283 283 284 284 284 284 283 282 280 279 278 279 278 276 277 278 277 277 279 281 281 279 281 282 281 281 281 282 283 283 284 287 289 289 290 290 291 292 292 293 295 296 297 297 297 297 297 296 295
274 274 274 274 273 273 273 275 277 278 276 274 274 274 274 274 274 275 276 277 279 282 283 283 284 283 283 284 284 284 284 284 284 281 278 279 280 278 278 277 277 275 275 278 282 279 278 281 282 280 281 282 282 282 283 284 285 287 288 289 290 290 291 292 293 294 296 296 297 297 297 296 295 295
274 274 275 275 275 274 275 277 278 279 278 276 275 275 275 274 274 276 277 276 275 273 273 275 276 277 280 282 282 282 283 283 283 283 282 281 279 278 278 278 276 274 276 277 281 278 278 280 280 280 279 276 279 282 282 284 284 285 285 286 287 289 290 292 292 294 295 296 296 297 297 296 295 293
274 275 275 276 277 278 279 279 279 280 280 278 277 277 275 275 274 277 276 276 275 275 274 274 274 274 275 275 272 273 276 279 281 282 282 282 280 278 277 276 277 275 274 273 281 279 276 278 276 281 279 277 275 276 278 280 282 284 285 285 285 287 289 289 291 293 294 295 295 295 296 296 294 291
272 273 274 275 277 278 278 279 279 280 280 280 279 278 277 277 278 279 276 276 277 275 274 274 274 274 272 273 272 272 273 275 277 279 281 281 281 279 277 274 274 275 276 275 283 278 275 276 276 278 278 278 276 275 274 278 280 282 283 284 285 286 286 287 288 291 293 294 294 293 294 295 293 292
273 273 273 273 275 276 277 278 279 280 280 280 279 279 280 281 281 279 279 277 276 276 275 274 274 274 274 273 273 273 274 275 276 277 279 280 280 281 280 278 275 271 275 278 284 279 277 274 278 278 277 277 276 275 275 276 278 278 282 284 285 285 286 286 286 286 288 289 291 291 290 293 293 292
273 274 274 274 275 277 278 278 279 279 280 280 279 281 281 281 281 280 279 279 278 276 276 276 275 275 275 275 275 275 275 275 275 276 277 278 279 279 279 278 276 276 276 272 279 280 278 274 277 279 277 277 276 275 275 275 277 278 279 279 282 284 285 285 285 285 285 286 286 291 292 292 292 292
274 273 273 275 277 278 278 279 279 279 279 278 280 280 280 280 280 279 279 278 278 277 276 276 276 276 276 276 276 276 276 276 275 276 276 277 278 277 277 276 274 273 270 268 273 279 279 277 277 279 280 278 276 275 275 275 275 276 276 278 279 280 283 284 284 283 284 285 285 285 284 284 285 287
273 275 276 276 276 276 276 276 276 276 276 277 278 279 279 279 278 277 277 277 277 277 276 276 276 276 277 277 277 278 277 278 278 278 278 277 276 274 274 272 272 272 270 268 268 276 278 279 278 278 279 279 278 276 276 274 275 275 275 278 277 277 278 282 283 282 283 283 283 283 283 284 284 285
275 275 275 274 274 273 273 272 271 272 273 275 276 276 276 275 276 277 277 277 277 276 276 277 276 276 277 277 278 278 277 277 278 279 279 277 275 275 275 274 273 271 269 268 267 268 272 277 276 277 278 278 278 277 275 275 273 274 274 275 276 277 277 279 281 281 281 281 281 281 282 283 283 284
271 272 272 272 272 271 271 271 271 271 272 272 271 271 272 273 274 274 275 277 277 277 277 276 275 276 277 277 276 275 276 276 277 279 280 278 277 276 277 277 274 272 271 268 268 268 269 272 275 277 277 276 276 277 276 276 274 274 273 274 275 276 276 277 278 279 280 279 279 280 281 282 282 282
269 270 271 270 267 266 265 266 266 267 268 270 271 270 270 270 271 272 273 274 276 278 278 277 275 274 275 276 277 276 275 275 275 277 279 279 277 277 277 276 275 270 269 270 268 269 271 271 273 275 278 278 277 274 274 274 274 274 272 270 272 273 275 277 276 276 278 278 277 275 276 278 279 280
267 268 267 266 265 263 264 265 265 266 266 268 269 269 269 270 270 268 267 269 272 275 277 277 277 277 277 277 277 276 275 274 275 277 278 279 278 277 277 277 275 272 272 269 270 269 270 271 272 274 274 275 277 276 275 272 272 274 274 270 271 272 271 273 275 274 275 275 273 274 273 273 273 275
264 265 262 261 261 262 263 264 265 266 266 266 267 268 270 270 270 270 270 271 272 273 274 276 277 277 277 276 276 275 275 274 274 277 279 278 278 277 276 277 275 273 273 272 270 271 271 273 273 275 275 274 275 275 274 273 272 273 272 271 272 271 269 268 271 272 273 272 273 273 271 272 272 271
263 264 262 260 260 261 262 263 264 266 266 266 266 267 268 269 269 270 270 270 271 272 274 275 276 277 277 276 276 275 275 275 276 277 278 278 278 277 277 277 275 274 273 271 270 269 271 273 274 274 273 273 274 274 276 273 274 272 270 270 268 271 269 267 268 268 270 269 272 270 268 269 270 270
263 263 262 261 261 262 261 262 263 264 265 265 265 265 266 266 268 268 268 270 271 271 273 275 276 276 276 277 276 276 276 276 277 277 277 277 277 277 277 277 275 274 274 273 272 270 271 273 275 274 272 270 269 269 269 274 274 272 273 270 267 265 264 265 265 266 269 267 267 270 269 269 268 268
262 261 261 260 260 261 260 260 261 263 263 264 264 265 265 265 266 267 268 270 270 271 272 274 275 275 275 276 276 276 276 277 276 276 276 277 277 277 276 275 274 274 274 274 273 272 272 273 274 274 273 271 270 270 268 266 270 273 270 271 265 264 267 265 267 265 261 262 264 264 265 266 266 267
260 260 259 260 260 259 260 260 261 261 262 262 263 264 265 265 265 266 267 268 268 270 270 271 272 274 276 275 275 276 276 277 277 276 276 276 276 276 275 274 274 273 272 270 271 272 273 274 274 274 274 273 271 271 270 269 267 268 272 269 269 263 264 267 265 266 264 260 263 262 261 265 265 264
260 259 259 258 259 258 258 258 259 259 260 260 260 262 263 264 264 265 265 266 267 268 269 269 270 271 273 275 275 276 276 276 276 275 275 275 276 275 275 274 273 272 271 270 270 271 272 272 274 274 275 274 273 272 273 271 269 265 268 274 267 265 263 267 266 261 263 263 262 260 261 262 266 271
259 258 257 257 256 255 255 256 255 256 257 258 258 260 262 262 263 263 263 264 265 266 267 267 268 270 271 272 275 276 276 276 275 275 274 274 274 274 273 271 271 271 271 270 269 270 271 272 272 272 272 271 270 270 270 270 267 264 264 270 275 268 264 263 263 264 262 260 258 263 263 260 263 260
256 254 253 253 252 253 252 253 253 254 255 256 257 259 261 261 262 262 262 263 263 265 265 266 267 267 268 270 271 274 274 273 273 273 273 272 271 270 270 270 270 271 270 269 269 270 269 268 267 268 270 270 271 271 272 270 267 264 263 264 271 275 272 267 265 263 259 259 261 260 260 261 260 256
252 251 251 251 251 251 251 251 253 253 254 255 255 257 259 260 260 262 260 261 262 262 263 264 265 266 267 268 269 271 272 272 272 272 271 271 269 269 270 271 271 270 270 269 269 268 266 268 268 269 270 271 271 271 268 268 265 265 265 263 262 270 275 275 273 268 264 264 262 258 258 258 255 258
252 250 249 251 252 251 251 252 252 253 254 254 254 256 257 259 258 257 257 258 259 260 261 262 263 264 265 266 268 269 270 270 270 270 270 270 270 270 271 271 271 270 270 267 266 266 267 267 268 268 269 268 266 268 269 266 266 266 265 265 263 263 265 271 274 275 272 271 270 264 261 262 261 259
251 250 249 249 249 249 249 250 251 252 254 254 254 255 256 257 257 256 256 256 256 257 258 259 260 262 264 265 266 267 267 267 268 269 269 269 269 270 270 269 268 266 266 265 265 264 264 265 264 266 267 264 263 266 266 266 266 266 266 263 262 263 264 263 264 269 272 273 274 274 274 272 270 269
251 249 248 248 248 248 249 250 251 252 252 253 254 254 255 255 256 255 255 255 254 255 256 257 258 259 261 263 264 264 264 267 266 266 266 267 267 268 267 267 266 266 265 265 264 262 263 263 263 263 262 261 260 262 263 263 263 261 260 263 263 261 260 259 260 259 259 261 269 273 273 274 274 274
Wind_Speed
3 3 4 5 6 5 5 5 5 5 4 3 4 5 5 4 8 8 9 10 10 8 5 10 6 3 5 7 6 7 7 8 10 8 9 9 8 11 19 20 20 21 21 21 21 21 21 20 20 21 18 16 14 15 16 15 16 17 17 17 17 17 15 12 12 12 17 18 18 19 17 19 19 20
4 5 6 5 6 5 5 3 5 5 4 5 4 5 5 4 7 7 10 12 8 10 6 6 9 6 5 5 8 8 9 11 12 9 9 8 8 15 20 19 20 21 21 21 20 20 20 21 21 21 21 20 18 17 17 16 16 16 16 18 18 16 15 15 11 9 10 12 16 19 17 17 17 17
5 4 6 6 6 5 5 6 6 6 5 4 4 3 3 4 5 6 7 14 5 5 8 7 6 9 9 10 10 10 10 11 12 10 8 8 10 16 13 15 17 20 20 20 20 20 20 20 21 21 21 20 21 20 18 18 17 18 18 17 17 16 15 14 14 12 10 10 14 17 19 19 17 15
5 6 5 6 6 5 5 5 4 4 5 6 5 5 5 5 5 5 7 11 16 4 8 9 10 10 12 12 13 14 11 10 12 8 7 8 10 9 8 10 15 17 19 20 20 20 20 19 19 19 20 22 22 20 19 19 18 18 18 18 17 16 16 16 15 15 14 14 14 16 19 20 21 20
8 6 6 6 6 6 6 5 4 5 6 4 4 4 4 5 5 6 7 11 15 9 5 9 10 9 11 12 9 12 11 10 7 6 5 5 7 8 8 8 10 15 17 19 19 20 20 19 18 18 19 20 21 20 20 19 20 21 20 16 15 17 17 20 18 17 16 16 14 17 19 21 22 22
8 7 7 8 6 6 7 6 7 6 5 5 6 6 5 5 6 5 7 10 12 14 9 11 8 9 7 11 9 11 10 8 6 8 8 7 6 7 7 7 7 11 15 17 19 19 19 19 19 19 17 18 20 21 21 21 22 21 19 17 16 15 16 17 19 18 17 19 18 17 20 21 24 24
7 8 9 9 8 7 8 7 5 4 5 6 7 7 6 7 7 8 8 9 12 13 11 11 12 10 10 11 10 8 8 7 7 9 10 9 8 7 8 8 8 10 16 19 20 21 21 20 20 20 19 18 19 20 20 18 15 15 14 15 15 16 16 16 16 20 18 17 20 18 19 20 22 26
7 8 9 9 9 8 9 9 8 7 6 5 5 6 7 7 8 8 8 10 10 10 11 9 10 9 10 10 10 8 9 9 9 9 10 10 10 9 9 8 9 9 16 20 21 21 22 22 21 21 21 19 19 18 16 16 16 15 14 15 16 16 17 17 16 18 19 19 19 19 20 21 22 24
10 10 10 10 9 9 10 9 8 7 8 7 7 8 7 7 8 8 9 10 10 10 11 12 10 9 9 9 10 9 10 10 9 9 10 10 11 11 10 9 8 11 17 19 20 20 21 20 19 20 20 20 19 18 15 15 15 15 15 15 15 16 17 17 18 17 17 19 20 20 20 20 20 22
10 10 10 9 8 10 10 9 8 8 10 9 8 6 5 5 5 6 8 8 9 9 9 9 10 9 8 9 9 9 9 11 11 10 10 10 9 10 10 10 8 8 7 7 9 12 13 15 18 19 19 20 20 18 17 16 15 15 15 15 16 16 17 17 18 18 17 19 20 20 20 20 20 20
10 10 10 10 10 8 5 5 6 5 5 5 5 5 6 6 7 8 8 9 9 9 9 9 9 10 9 8 10 9 9 9 9 10 11 12 9 9 9 10 8 6 8 10 15 14 12 13 12 14 16 17 18 17 16 16 15 14 14 15 16 17 17 18 18 19 18 18 20 20 20 20 20 21
10 10 11 11 10 9 9 9 9 7 7 5 6 7 6 7 8 8 9 9 9 9 8 8 9 8 10 10 9 10 8 8 9 9 10 12 12 10 7 8 8 7 7 8 8 10 13 13 14 14 13 15 14 15 14 15 15 15 14 15 17 17 18 19 18 18 19 19 19 20 21 21 21 21
10 10 10 10 10 12 16 19 17 14 12 8 8 9 7 8 9 9 8 9 9 8 9 10 9 9 9 8 8 8 7 9 12 11 8 9 11 11 10 10 8 8 8 7 8 9 8 8 9 7 7 8 10 11 12 11 14 15 14 16 16 18 19 19 20 19 19 19 20 21 21 22 22 22
10 11 10 10 18 20 20 20 21 22 23 23 15 11 9 10 10 9 9 9 8 9 10 11 10 11 10 9 7 9 10 10 10 10 8 9 9 9 10 10 9 5 7 8 9 9 8 8 8 6 8 7 7 6 7 7 9 10 15 17 19 19 20 21 21 21 20 20 20 21 22 22 23 23
11 10 11 10 14 16 17 17 22 21 22 22 23 25 24 18 13 11 12 13 11 11 11 10 10 10 10 8 8 9 11 11 10 9 8 7 7 8 9 11 10 8 8 8 8 9 6 6 9 8 8 8 7 6 8 10 13 15 17 19 20 21 21 22 22 22 22 21 20 21 22 23 23 24
10 10 10 10 9 10 11 11 12 17 21 22 23 24 24 24 26 25 16 13 12 13 11 10 10 8 9 8 7 8 9 8 7 7 7 7 9 10 10 9 11 5 8 7 7 8 5 5 7 8 7 7 7 8 10 14 16 17 19 21 22 24 24 23 22 22 22 22 21 22 22 23 23 23
11 10 9 9 9 9 17 15 12 11 12 19 24 24 24 25 27 26 29 29 18 11 10 10 11 11 9 9 9 8 9 8 9 8 6 6 8 9 10 11 10 7 5 6 7 8 6 6 7 9 8 8 7 9 14 18 18 19 21 21 22 25 25 24 22 22 22 23 22 22 22 23 23 22
12 11 10 9 8 8 10 11 12 12 12 12 12 13 13 13 18 25 28 28 31 24 16 14 14 12 9 11 9 9 10 11 9 7 8 7 8 9 10 12 10 4 6 8 6 8 7 4 5 9 8 7 8 7 11 17 18 20 21 22 23 25 26 24 22 22 22 23 23 23 23 23 24 24
11 12 10 11 10 10 10 10 12 12 12 12 11 12 13 13 12 11 12 14 14 14 14 15 16 15 13 13 13 13 11 11 10 8 9 10 10 10 10 6 2 4 3 6 6 6 8 4 6 8 9 7 7 7 10 16 19 21 21 22 22 24 26 25 23 21 22 22 23 24 23 23 24 24
8 9 10 10 11 11 11 14 20 16 11 10 11 11 11 11 12 13 15 20 20 18 15 15 15 14 15 18 14 13 11 10 10 9 8 9 10 9 7 7 6 5 5 7 6 5 8 3 6 8 8 5 7 7 8 11 20 21 22 22 22 23 24 26 24 21 21 21 24 25 24 23 22 23
9 9 10 10 10 10 10 15 21 21 19 12 13 13 14 13 11 11 11 18 24 23 24 25 26 26 27 26 26 25 25 16 10 8 9 11 10 8 8 6 4 5 4 4 7 7 7 4 6 8 6 6 6 9 8 8 14 20 21 21 22 22 23 26 26 22 20 21 23 25 25 25 22 22
8 10 17 15 12 11 11 17 21 22 18 13 13 12 13 14 14 13 12 10 11 17 18 18 22 24 25 26 25 24 23 21 16 9 10 11 7 7 6 5 4 3 0 5 6 4 6 5 4 7 5 5 5 7 8 7 9 15 17 21 22 22 22 24 26 24 21 19 20 23 25 24 23 17
7 8 11 18 17 14 15 21 22 23 18 12 12 12 12 13 13 13 11 10 9 7 6 7 7 8 11 11 11 11 16 17 15 11 10 8 7 7 6 5 2 3 4 5 8 6 5 5 6 5 2 3 6 6 6 7 6 7 8 9 12 19 22 23 22 24 22 18 17 21 24 23 20 10
5 6 7 11 18 22 22 22 22 22 23 15 12 11 10 11 14 12 10 10 9 9 9 8 6 7 6 7 5 5 5 8 9 9 8 8 7 7 6 6 6 5 3 1 7 7 3 4 5 6 6 5 3 2 2 4 5 5 6 7 7 11 15 15 17 24 23 17 13 11 17 21 17 10
5 5 6 6 10 16 18 18 18 19 20 19 13 13 12 13 14 14 10 12 13 9 8 8 7 7 6 6 5 5 6 6 7 7 7 8 8 8 7 7 6 7 7 3 8 4 3 2 4 3 4 4 3 1 2 3 4 4 4 5 6 7 8 7 7 12 19 20 17 13 10 13 15 12
4 6 6 5 10 15 17 18 18 19 18 20 12 11 16 19 22 16 12 10 8 8 8 7 7 7 6 6 6 5 6 6 7 7 7 7 8 8 7 8 8 6 7 5 11 7 5 2 6 4 2 3 4 1 2 2 3 3 4 4 5 6 7 6 5 5 6 7 9 11 10 12 8 9
6 5 7 8 13 16 17 17 18 19 20 17 12 18 19 19 17 12 8 8 8 8 8 8 8 8 7 6 7 6 6 7 6 6 6 7 7 8 7 7 6 7 6 1 5 7 6 3 3 5 5 3 3 1 1 3 2 2 2 2 3 4 5 5 5 4 3 4 3 6 12 13 15 14
5 7 7 9 15 16 15 15 15 15 14 10 16 18 19 18 13 8 6 6 6 7 8 8 8 8 8 7 7 7 7 7 6 7 6 7 7 7 6 5 3 3 2 3 4 6 6 6 3 4 4 4 4 4 3 1 2 2 3 1 2 3 1 5 4 5 5 4 5 5 6 5 2 5
5 10 14 14 12 11 11 12 11 8 8 10 11 14 13 10 6 7 6 7 6 6 7 7 8 8 8 8 9 8 6 5 4 3 4 5 4 3 2 1 1 1 0 1 3 5 6 7 6 2 3 3 5 3 1 3 1 1 3 3 2 4 4 1 5 6 5 5 5 4 5 4 4 2
13 12 10 11 10 9 8 5 5 5 5 9 9 7 5 2 3 3 6 7 7 8 7 7 8 8 7 7 8 7 6 6 6 6 5 5 4 5 5 4 2 1 1 0 0 1 3 5 3 4 4 3 4 4 3 2 0 2 3 2 1 0 4 4 5 5 6 6 5 5 4 4 4 4
5 6 6 5 7 7 8 7 6 6 6 5 4 2 2 2 2 3 3 4 6 7 7 7 6 7 7 5 5 5 6 7 6 6 6 6 6 6 6 7 6 3 1 1 1 1 1 1 2 4 4 3 1 2 2 1 2 1 2 3 4 2 1 3 5 5 5 6 6 5 4 5 5 6
3 3 5 6 4 4 4 5 5 5 5 4 4 3 3 2 3 4 6 6 5 5 6 6 6 4 4 5 6 6 6 7 6 5 6 6 6 7 6 6 7 5 2 0 2 3 2 2 0 4 5 5 5 2 2 1 2 2 2 2 2 3 3 4 5 5 4 5 6 6 4 5 5 5
2 2 3 4 4 4 5 5 6 6 6 5 4 4 4 3 4 3 3 3 4 5 5 6 6 6 5 6 6 6 6 6 6 5 6 6 6 6 6 8 6 5 6 3 1 2 3 3 4 1 2 2 1 5 5 2 1 2 3 1 3 3 4 4 5 4 3 7 5 5 5 5 4 4
1 2 3 4 4 4 4 5 5 6 5 5 6 5 6 5 4 4 3 3 4 4 6 6 5 6 6 6 6 6 6 5 5 6 7 5 6 6 7 7 6 6 5 5 4 3 2 3 4 4 5 6 6 4 1 2 3 3 3 3 3 3 1 3 3 3 4 3 5 5 4 3 3 5
2 2 2 3 4 4 3 3 4 5 5 5 6 6 5 4 5 5 4 4 4 5 5 6 6 5 6 5 5 6 6 6 5 4 5 5 6 7 7 7 5 6 5 5 4 2 3 4 5 4 4 2 3 3 5 3 5 4 3 2 2 4 2 1 2 3 4 3 3 5 3 1 2 4
2 2 2 3 4 4 4 4 4 4 5 5 5 5 5 5 5 5 5 6 5 5 5 5 6 6 6 6 6 6 5 5 5 5 5 5 5 5 6 6 5 5 5 6 5 4 4 4 4 5 5 2 3 2 1 6 4 4 7 4 1 3 2 3 2 3 5 4 2 4 3 3 2 4
1 2 2 3 3 4 4 4 4 4 5 5 6 5 5 6 6 6 7 8 6 5 4 3 5 6 5 5 5 5 5 6 5 5 5 5 5 5 5 4 4 5 5 4 5 5 4 5 3 4 4 4 4 5 2 3 5 5 2 5 2 1 5 4 5 4 3 2 3 3 3 5 2 1
1 2 2 2 3 3 4 4 5 5 5 5 6 6 6 6 6 7 7 6 6 5 5 4 3 2 4 4 5 5 5 6 5 5 4 5 5 5 5 5 5 5 4 4 4 4 4 4 5 4 5 6 6 4 4 0 1 3 5 3 6 4 3 6 4 5 1 3 3 1 2 6 2 1
2 2 2 3 3 4 4 4 4 5 5 5 5 5 6 6 6 6 7 6 6 6 5 5 4 4 1 4 5 5 5 5 5 5 5 5 5 5 5 5 5 4 5 4 2 3 3 4 5 5 5 6 8 7 6 7 2 0 3 5 7 7 4 5 5 3 5 3 0 0 2 1 2 4
2 2 2 2 3 4 3 3 4 4 4 5 5 5 5 6 6 6 6 6 7 6 5 5 6 5 4 3 2 4 4 6 6 5 5 5 5 5 5 5 5 5 4 4 4 3 3 3 2 2 1 0 1 2 4 5 4 2 4 6 5 3 5 5 4 6 2 1 3 3 1 2 3 2
1 2 2 3 3 3 3 3 4 4 4 4 5 5 5 5 5 6 6 6 6 6 5 5 6 5 5 5 3 2 5 4 5 5 5 5 4 4 5 5 4 4 5 4 4 4 3 1 1 3 1 3 1 2 4 4 3 1 3 3 7 5 6 5 5 5 3 3 4 4 3 1 0 2
1 2 3 3 3 3 3 3 4 4 4 4 4 5 5 5 5 8 6 8 7 7 5 6 6 6 5 5 5 4 4 5 5 5 4 5 4 4 4 4 5 4 5 5 5 3 1 1 1 2 2 2 2 3 3 5 3 1 0 1 2 7 7 4 6 6 7 8 5 3 2 1 1 1
1 2 2 3 2 2 3 3 4 4 4 4 4 5 4 4 4 6 6 6 6 7 7 7 6 5 5 5 5 5 4 4 4 4 4 4 5 5 5 4 4 4 4 5 5 4 3 3 3 3 4 4 3 2 4 4 3 3 1 1 2 3 4 8 9 5 7 6 5 4 3 3 4 0
1 1 2 2 2 3 3 3 4 4 4 4 4 4 4 4 4 5 5 5 5 5 5 5 6 6 6 6 4 5 5 4 4 4 4 4 3 3 4 5 6 6 6 6 6 4 4 4 4 3 4 3 2 2 5 5 4 2 3 1 2 4 5 5 5 7 7 8 9 5 4 6 4 5
1 2 2 2 3 3 3 3 3 4 4 4 3 4 4 4 3 3 4 4 4 5 5 5 6 5 6 6 5 6 5 4 4 4 4 4 4 4 4 5 5 6 5 5 6 5 4 4 3 4 4 3 3 2 2 3 3 3 2 3 3 4 4 4 4 3 4 2 5 10 7 6 5 5
Wind_Direction
248 256 258 254 250 242 235 239 242 241 243 242 236 230 245 241 271 289 291 275 281 278 265 286 275 295 340 332 328 330 318 315 318 319 321 317 317 313 318 318 318 318 317 318 319 321 310 293 284 277 280 284 283 282 281 286 300 298 281 273 273 270 271 256 249 250 242 246 237 236 225 239 235 217
254 260 260 265 269 262 250 239 236 238 241 246 244 242 241 242 258 268 275 280 259 284 277 280 295 305 305 322 318 315 307 303 307 307 307 310 306 307 311 311 311 312 313 313 314 312 312 311 297 284 280 277 282 288 288 282 280 290 305 293 270 265 264 264 256 234 243 239 236 231 226 226 233 237
261 256 258 254 258 260 255 251 247 245 240 238 241 249 240 249 255 266 272 281 239 261 281 281 290 307 312 307 305 299 295 293 291 293 295 297 295 300 302 302 302 304 305 306 305 307 308 302 301 292 275 273 276 280 283 284 282 280 282 294 300 278 258 258 257 257 249 239 227 230 225 223 222 224
268 269 271 274 271 265 261 261 261 257 247 239 240 240 245 249 248 259 265 264 277 239 275 277 276 280 287 288 286 282 280 278 280 284 284 284 290 295 293 292 292 293 295 296 294 296 296 297 297 296 295 285 277 277 278 281 285 287 284 283 286 294 276 253 252 251 248 245 239 229 231 222 212 211
265 262 260 258 260 263 262 260 257 253 254 256 250 240 244 249 249 258 266 271 280 275 272 281 283 276 271 274 265 269 269 274 279 274 273 279 284 284 282 283 283 285 287 286 286 285 286 288 288 290 289 289 285 280 278 278 279 280 282 284 282 281 284 267 250 247 244 243 236 232 231 229 220 208
259 261 262 260 257 255 259 254 252 247 247 247 246 251 250 251 252 240 255 265 271 282 275 277 279 278 262 265 255 257 268 272 281 288 290 280 270 276 278 279 279 275 278 281 281 278 278 281 284 283 283 283 281 280 278 276 275 277 278 278 276 275 276 279 264 246 242 243 242 232 230 224 225 214
250 255 255 254 254 253 256 253 248 240 242 238 243 246 243 250 250 248 247 259 268 278 278 277 277 280 286 285 289 286 283 285 286 290 289 289 283 271 272 274 275 268 271 276 278 278 278 280 281 281 280 277 276 275 278 281 283 285 289 289 286 278 272 268 267 260 244 240 242 237 233 225 219 219
249 247 248 251 248 244 242 240 241 241 231 232 240 246 245 243 247 249 247 248 258 264 275 268 274 272 277 277 282 280 278 278 282 276 277 276 277 279 271 265 268 264 266 269 270 271 272 273 272 272 272 272 272 272 269 271 278 279 277 279 281 283 279 271 261 259 257 244 240 239 241 234 222 219
254 246 242 245 243 238 240 241 243 239 243 246 247 246 245 246 246 246 246 247 245 256 262 270 268 275 270 271 269 270 277 280 271 273 270 272 271 269 264 262 254 254 261 262 263 263 266 268 270 269 267 266 266 269 269 264 265 268 271 272 273 276 276 274 267 257 251 251 243 240 239 239 228 219
264 274 277 272 254 239 233 237 235 234 236 235 230 230 240 250 259 262 264 261 262 255 255 262 275 269 273 273 269 266 259 269 277 275 272 268 261 263 266 258 253 254 249 257 262 261 260 263 263 261 261 260 261 261 264 266 262 261 261 265 268 270 272 270 268 262 250 245 245 242 239 237 234 225
248 256 261 261 266 274 265 246 231 227 231 226 235 235 244 253 257 262 263 265 265 262 264 263 257 266 262 259 272 269 254 254 255 268 277 276 264 248 246 259 256 240 242 241 244 246 246 248 251 255 255 256 256 258 264 268 269 264 260 260 261 263 265 267 266 263 254 244 241 241 238 236 234 228
242 243 247 253 255 253 253 250 249 242 242 234 241 241 240 245 250 254 257 260 258 259 261 258 265 262 267 265 254 263 267 266 260 246 251 262 271 273 255 240 254 257 243 248 249 249 252 253 253 251 252 252 251 255 259 262 264 264 261 260 260 260 260 262 262 262 257 248 240 239 238 235 233 231
239 239 241 243 242 243 246 248 246 242 234 228 240 243 235 241 244 248 251 253 256 258 259 264 258 257 254 245 249 256 246 244 250 253 231 246 255 263 271 266 240 235 248 248 242 244 232 240 239 235 241 241 248 253 252 255 258 259 258 256 256 257 259 258 257 257 258 252 243 237 236 235 235 230
236 236 237 238 241 244 247 250 251 251 250 246 238 235 229 233 235 235 240 242 243 249 252 252 255 252 247 242 230 240 246 246 247 250 242 242 249 255 261 267 259 222 216 229 242 241 230 225 241 229 231 240 234 235 241 236 242 249 254 255 255 255 256 257 256 252 251 251 245 237 233 233 234 234
232 233 232 234 240 243 246 247 250 250 249 247 248 247 244 236 226 227 234 241 241 242 246 250 248 248 253 247 248 260 264 251 238 234 237 243 253 257 262 267 273 228 211 225 234 241 226 203 233 234 227 232 227 223 234 233 239 245 253 257 256 254 253 252 253 250 245 245 244 237 231 230 230 232
229 231 231 232 231 232 233 234 239 245 248 250 248 247 247 247 243 236 230 231 236 237 240 241 241 243 240 247 249 257 264 263 253 250 252 254 259 265 258 250 251 244 189 211 231 250 222 189 224 240 235 230 226 223 229 237 246 251 253 255 256 255 253 251 249 247 244 241 240 237 230 228 227 228
227 226 230 232 228 228 233 235 235 234 240 247 250 252 252 252 251 250 246 240 236 234 237 238 241 239 247 254 250 247 248 250 252 245 244 249 260 261 257 248 247 247 141 190 221 243 235 180 211 234 237 234 230 239 246 245 245 251 255 255 254 253 252 251 249 248 244 240 237 235 230 227 225 225
227 228 231 234 232 225 226 229 231 232 235 236 240 245 247 248 252 254 254 256 253 247 241 241 244 242 225 241 247 250 255 259 253 260 262 265 265 258 249 245 246 238 183 181 205 234 236 191 196 236 244 238 243 238 241 244 246 251 254 255 254 252 251 250 249 248 247 241 236 232 230 226 225 224
224 227 229 232 235 233 229 226 226 227 230 233 237 243 246 246 248 250 251 245 243 247 245 242 242 245 242 243 246 252 252 250 253 252 263 271 271 265 259 261 227 234 205 190 210 246 246 197 211 240 246 239 239 242 243 245 247 250 253 253 252 251 250 250 250 249 247 243 235 230 227 226 224 223
212 218 222 228 235 235 233 232 237 238 232 231 238 241 247 253 253 249 244 246 245 239 235 233 237 240 242 243 241 244 245 248 252 259 265 270 269 260 240 237 224 205 219 188 203 230 253 180 224 244 245 240 245 240 237 237 248 251 251 251 251 250 248 248 248 248 248 245 236 228 224 222 220 219
223 224 223 226 233 236 237 241 245 247 247 241 242 246 248 248 251 256 257 259 264 260 242 236 237 237 239 242 245 246 247 244 238 243 254 256 259 247 235 240 221 234 193 193 203 222 248 220 213 247 247 227 238 241 239 232 243 249 250 250 249 249 247 245 244 243 244 245 239 227 222 219 217 214
229 229 231 230 234 239 243 247 249 248 244 240 239 240 243 247 248 251 252 258 257 262 268 258 247 240 238 239 242 245 249 250 247 231 235 251 257 245 235 242 226 277 202 219 187 210 237 229 200 237 258 237 234 244 240 235 239 242 248 250 250 249 247 245 242 239 237 241 240 230 219 215 212 211
237 239 241 241 238 238 242 248 253 255 251 239 236 237 241 246 246 248 248 245 248 254 260 266 270 273 262 252 244 244 249 249 249 242 242 244 231 238 238 237 266 295 264 231 172 200 241 209 224 195 236 249 247 225 234 234 225 222 230 242 248 250 249 246 241 237 233 230 234 228 216 210 199 188
296 262 243 240 243 246 250 254 257 257 257 249 236 233 233 236 247 247 243 237 233 242 235 241 238 240 243 252 252 249 246 245 242 238 227 223 219 225 222 223 211 219 232 269 164 195 257 197 225 201 204 233 271 265 256 265 232 225 225 234 235 243 249 256 243 233 226 214 220 234 207 188 177 171
275 286 290 302 270 262 263 265 266 266 265 264 252 238 232 233 240 242 240 240 231 233 236 239 243 243 241 243 240 236 233 234 237 234 222 214 213 212 215 211 215 238 245 243 185 179 235 219 231 205 220 202 246 325 271 241 273 252 238 229 235 235 231 247 244 225 218 204 195 201 210 180 171 170
283 282 277 261 275 276 272 269 267 266 264 264 266 259 254 246 241 242 240 236 230 225 228 232 239 240 239 241 243 240 233 229 231 230 225 215 212 216 215 206 204 218 244 229 186 194 207 267 216 215 227 215 265 162 283 299 249 295 275 246 236 225 214 219 225 202 191 182 190 198 211 222 208 189
285 284 274 269 274 274 271 270 269 269 268 267 263 265 265 267 266 257 244 237 226 219 222 225 229 234 229 228 230 231 233 232 225 227 227 225 215 218 221 222 221 220 250 280 216 195 194 231 209 199 230 215 243 317 243 266 298 302 311 331 287 218 184 177 185 156 122 119 103 192 210 214 221 230
291 290 277 268 275 281 288 288 284 281 282 278 270 266 265 265 265 254 241 225 220 217 219 221 224 226 224 220 223 221 222 226 215 219 222 224 223 219 228 228 222 233 271 242 227 206 201 218 226 221 214 203 209 222 252 285 278 308 289 285 22 337 191 146 137 113 103 103 100 105 92 66 78 189
294 302 307 317 324 320 311 306 304 303 299 297 297 283 273 269 243 242 232 230 218 222 217 216 221 223 222 218 221 217 210 215 211 213 227 218 202 161 148 118 145 153 280 282 228 207 201 211 217 182 182 213 220 232 164 244 266 294 290 283 46 346 340 80 116 106 97 87 93 86 87 108 92 97
316 313 322 331 339 338 332 328 313 299 302 301 308 326 355 343 300 263 232 222 227 227 224 218 214 219 220 219 219 209 197 195 211 208 214 182 181 165 164 157 211 308 339 313 36 193 204 223 208 170 191 222 235 227 194 161 281 304 343 18 219 25 14 14 75 94 97 86 75 63 54 71 69 73
307 316 337 343 342 340 344 349 344 338 322 313 308 315 324 330 327 310 308 267 234 225 225 228 222 224 221 209 198 198 196 210 215 199 200 193 193 185 184 188 191 199 272 357 43 66 115 188 216 167 181 192 166 256 207 163 133 115 360 352 333 101 268 39 45 63 81 91 80 62 48 49 47 35
303 326 349 341 323 316 336 348 357 347 337 327 330 324 320 329 337 318 305 299 275 241 227 225 228 227 204 200 207 202 198 207 208 197 199 198 190 189 181 188 200 190 186 6 10 15 51 46 277 217 190 182 194 197 78 83 153 145 68 347 50 23 27 89 81 53 54 87 72 59 39 37 43 31
337 352 349 342 341 351 356 358 355 342 337 341 336 332 330 346 341 322 319 299 275 272 237 220 219 223 204 214 206 204 201 201 205 191 200 204 187 186 187 200 185 176 179 185 69 19 34 46 32 35 110 72 106 151 149 119 166 135 136 17 49 47 22 24 72 80 58 63 62 80 57 19 16 23
13 1 358 346 342 350 358 0 351 342 341 343 345 341 347 340 333 325 314 288 276 262 252 243 220 215 207 209 197 193 203 204 204 195 198 197 183 177 196 204 191 178 168 166 152 124 79 61 75 76 82 80 60 53 74 125 158 138 111 136 109 110 8 28 50 58 67 111 120 93 79 43 1 9
15 358 341 349 345 355 352 1 344 344 341 347 347 337 330 324 326 319 301 295 284 280 261 229 222 218 208 204 185 193 196 198 198 187 195 188 180 185 194 205 171 170 164 156 160 163 114 124 120 106 80 84 87 29 57 71 140 125 98 75 82 122 131 15 92 64 82 51 86 110 86 31 39 3
21 342 350 356 358 351 1 352 345 346 341 338 338 329 333 334 332 329 322 319 306 291 273 225 206 210 207 202 188 190 192 190 194 189 186 181 185 184 193 196 175 174 164 165 161 168 147 150 154 156 154 149 120 142 333 9 47 158 154 175 58 91 83 82 55 67 78 76 59 119 124 138 48 350
8 334 348 20 0 356 345 341 336 344 342 340 333 335 339 336 333 326 322 322 320 311 301 290 215 201 203 196 185 184 182 185 191 187 186 183 173 175 176 170 165 160 162 157 154 159 156 164 188 165 155 156 154 189 171 301 21 52 123 140 128 86 133 119 109 76 13 80 63 63 140 124 123 314
358 349 355 12 17 357 346 346 344 339 344 341 329 328 336 337 330 331 330 341 331 337 345 351 326 264 207 180 182 183 181 186 180 173 176 168 164 170 170 162 162 160 146 126 150 162 168 166 175 188 172 177 193 190 176 312 59 14 16 131 142 181 130 121 121 140 93 18 105 160 73 84 132 217
24 16 15 3 8 354 354 353 347 337 333 331 331 327 333 337 336 336 338 335 325 338 353 3 3 350 301 196 181 172 172 167 166 161 167 172 171 168 158 148 138 127 124 126 121 137 153 184 186 187 196 187 193 204 188 164 139 178 347 87 138 128 185 161 137 110 131 118 95 217 80 9 111 41
21 38 19 12 355 355 352 342 332 322 326 327 325 319 327 338 338 335 337 340 335 339 358 360 356 360 5 347 160 156 162 167 164 163 161 155 153 145 142 143 143 145 132 142 154 150 173 169 154 130 122 143 256 44 90 101 105 57 21 22 87 135 166 149 145 146 122 182 140 109 97 26 106 324
2 358 358 2 7 354 351 333 327 322 327 327 324 325 325 334 348 345 344 345 345 352 357 2 7 6 357 357 5 132 137 127 133 136 131 128 127 131 131 125 128 154 154 152 143 149 122 58 316 298 85 109 111 139 91 83 100 3 18 347 359 38 151 150 144 147 145 169 112 94 85 81 327 3
33 1 349 351 8 343 339 331 330 328 331 334 329 330 325 347 356 354 353 358 358 354 1 5 3 7 3 2 10 26 95 122 126 119 119 119 107 107 132 143 146 152 157 160 151 119 98 307 349 58 99 131 159 120 123 146 159 131 351 342 342 12 43 103 157 142 145 145 122 102 81 1 28 2
28 4 347 339 351 346 346 342 332 334 336 335 337 334 333 348 1 2 2 359 357 9 5 360 355 357 3 1 20 32 51 60 80 101 96 103 130 152 150 142 128 123 103 91 82 90 73 36 23 53 57 63 32 81 135 144 135 138 117 67 15 344 4 24 22 98 146 149 134 151 166 159 127 277
16 11 335 334 343 339 344 345 339 338 339 338 339 339 347 357 9 6 4 354 358 354 338 337 347 1 7 1 15 44 42 38 45 68 88 87 92 104 115 109 107 104 106 109 96 70 55 55 27 22 69 47 13 85 141 131 133 130 117 45 357 28 18 353 358 29 41 35 30 46 110 139 155 159
44 31 354 338 344 346 350 345 346 342 346 345 354 2 359 6 8 356 357 360 352 342 350 351 347 345 358 7 23 42 28 40 60 57 66 78 81 85 93 111 111 109 111 124 115 71 60 63 45 49 72 41 33 77 98 112 135 119 54 66 76 29 22 6 33 16 8 329 2 17 22 9 355 327